Home   Weather   Acharnes   Past weeks

Flag for Greece Past Weather in Acharnes, Greece — Yesterday and Last 2 Weeks

Now
59 °F

Clear.


Feels Like: 59 °F
Forecast: 58 / 72 °F
Wind: 5 mph from North

Location: Elefsis Airport

Current Time: Sep 26, 2016 at 3:16:35 AM

Latest Report: Sep 26, 2016 at 2:20 AM


Visibility: 10 mi

Pressure: 30.01 "Hg

Humidity: 51%

Dew Point: 41 °F

Location of AcharnesLocation

Past Weather in Acharnes — Graph

°F

Acharnes Temperature Yesterday

Maximum temperature yesterday: 77 °F (at 2:20 PM)
Minimum temperature yesterday: 59 °F (at 5:20 AM)
Average temperature yesterday: 68 °F

High & Low Weather Summary for the Past Weeks

 TemperatureHumidityPressure
High95 °F (Sep 18, 1:50 PM)88% (Sep 11, 1:50 AM)30.27 "Hg (Sep 11, 1:50 AM)
Low59 °F (Sep 23, 11:50 PM)18% (Sep 15, 3:50 PM)29.71 "Hg (Sep 20, 4:20 AM)
Average75 °F49%29.96 "Hg
* Reported Sep 11 1:50 AM — Sep 26 1:50 AM, Acharnes, Weather by CustomWeather, © 2016

Note: Actual official high and low records may vary slightly from our data, if they occured in-between our weather recording intervals... More about our weather records

Advertising

Acharnes Weather History for the Previous 24 Hours

Scroll right to see more
 ConditionsComfort  
Time TempWeatherWind HumidityBarometerVisibility
1:50 AM
Mon, Sep 26
61 °FClear.6 mph48%30.01 "Hg10 mi
1:20 AM64 °FClear.6 mph46%30.01 "Hg10 mi
12:50 AM64 °FClear.3 mph43%30.01 "Hg10 mi
12:20 AM61 °FClear.3 mph48%30.01 "Hg10 mi
11:50 PM
Sun, Sep 25
63 °FPassing clouds.3 mph45%30.01 "HgN/A
11:20 PM61 °FPassing clouds.3 mph48%30.01 "HgN/A
10:50 PM64 °FPassing clouds.3 mph40%30.01 "HgN/A
10:20 PM64 °FPassing clouds.No wind43%30.01 "HgN/A
9:50 PM66 °FPassing clouds.No wind35%30.01 "HgN/A
9:20 PM66 °FPassing clouds.No wind37%30.01 "HgN/A
8:50 PM70 °FPassing clouds.3 mph33%30.01 "HgN/A
8:20 PM70 °FPassing clouds.No wind33%30.01 "HgN/A
7:50 PM70 °FPassing clouds.No wind33%30.01 "HgN/A
7:20 PM72 °FPassing clouds.3 mph31%29.98 "HgN/A
6:50 PM73 °FScattered clouds.3 mph27%29.98 "HgN/A
6:20 PM75 °FScattered clouds.3 mph27%29.98 "HgN/A
5:50 PM75 °FScattered clouds.6 mph29%29.98 "HgN/A
5:20 PM75 °FScattered clouds.7 mph39%29.98 "HgN/A
4:50 PM77 °FScattered clouds.6 mph34%29.98 "HgN/A
4:20 PM75 °FScattered clouds.9 mph36%29.98 "HgN/A
3:50 PM77 °FScattered clouds.7 mph28%29.98 "HgN/A
2:50 PM77 °FScattered clouds.7 mph30%30.01 "HgN/A
2:20 PM77 °FScattered clouds.12 mph28%30.01 "HgN/A
1:50 PM75 °FPartly sunny.7 mph31%30.04 "HgN/A
1:20 PM75 °FPartly sunny.12 mph36%30.04 "HgN/A
12:50 PM75 °FScattered clouds.12 mph36%30.04 "HgN/A
12:20 PM73 °FScattered clouds.10 mph38%30.07 "HgN/A
11:50 AM73 °FScattered clouds.12 mph41%30.07 "HgN/A
11:20 AM72 °FScattered clouds.7 mph44%30.09 "HgN/A
10:50 AM72 °FScattered clouds.9 mph44%30.09 "HgN/A
10:20 AM70 °FScattered clouds.8 mph46%30.09 "HgN/A
9:50 AM70 °FScattered clouds.7 mph46%30.09 "HgN/A
9:20 AM68 °FPassing clouds.6 mph49%30.09 "HgN/A
8:50 AM68 °FPassing clouds.7 mph49%30.09 "HgN/A
8:20 AM64 °FPassing clouds.5 mph60%30.09 "HgN/A
7:50 AM61 °FScattered clouds.7 mph63%30.09 "HgN/A
7:20 AM63 °FScattered clouds.7 mph59%30.09 "HgN/A
6:50 AM61 °FPassing clouds.6 mph59%30.09 "HgN/A
6:20 AM61 °FPassing clouds.3 mph59%30.12 "HgN/A
5:50 AM61 °FClear.3 mph59%30.12 "Hg10 mi
5:20 AM59 °FClear.3 mph63%30.12 "Hg10 mi
4:50 AM61 °FClear.7 mph59%30.12 "Hg10 mi
4:20 AM61 °FClear.7 mph59%30.12 "Hg10 mi
3:50 AM61 °FClear.5 mph59%30.12 "Hg10 mi
3:20 AM63 °FClear.3 mph52%30.15 "Hg10 mi
Weather by CustomWeather, © 2016

See weather overviewHow to use our weather pages